Location: Bednik
(45.3500°N, 16.3833°E)
Time: 06:59:51
(UTC+00:00)

SL-8 R/B - Pass Details

Date: 08 August 2020
Orbit: 657 x 667 km, 48.4° (Epoch: 26 September)

Event Time Altitude Azimuth Distance (km) Brightness Sun altitude
Rises 18:38:28 0° 290° (WNW) 3,004 9.5 -5.0°
Reaches altitude 10° 18:40:49 10° 290° (WNW) 2,091 8.0 -5.4°
Maximum altitude 18:45:39 86° 203° (SSW) 673 3.8 -6.1°
Drops below altitude 10° 18:50:29 10° 114° (ESE) 2,085 5.6 -6.8°
Enters shadow 18:50:51 - 114° (ESE) 2,221 5.7 -6.9°
